Location: Newark
(39.0622°N, 106.5590°E)
Time: 11:35:21
(UTC+00:00)

Courier 1B - Pass Details

Date: 30 January 2020
Orbit: 962 x 1209 km, 28.3° (Epoch: 22 February)

Event Time Altitude Azimuth Distance (km) Brightness Sun altitude
Rises 18:36:47 0° 244° (WSW) 3,717 - -61.0°
Reaches altitude 10° 18:39:40 10° 235° (SW) 2,800 - -60.6°
Maximum altitude 18:45:39 33° 174° (S) 1,690 - -59.7°
Drops below altitude 10° 18:51:59 10° 113° (ESE) 2,962 - -58.7°
Sets 18:55:07 0° 104° (ESE) 3,961 - -58.2°
